Weather History for KLCI - October, 2012

Change the Weather History Date:

Sunday, October 14, 2012

  Actual Average Record
Temperature  
Mean Temperature 44 °F -  
Max Temperature 50 °F 61 °F 82 °F (1995)
Min Temperature 37 °F 40 °F 25 °F (1993)
Degree Days  
Heating Degree Days 22    
Moisture  
Dew Point 40 °F    
Average Humidity 84    
Maximum Humidity 93    
Minimum Humidity 46    
Precipitation  
Precipitation 0.13 in - - ()
Sea Level Pressure  
Sea Level Pressure 30.06 in    
Wind  
Wind Speed 3 mph (WSW)    
Max Wind Speed 9 mph    
Max Gust Speed -    
Visibility 8 miles    
Events      
Averages and records for this station are not official NWS values.
T = Trace of Precipitation, MM = Missing Value Source: NWS Daily Summary

Daily Weather History Graph

Daily Weather History Graph

Search for Another Location

Airport or City:

Trip Planner

Search our weather history database for the weather conditions in past years. The results will help you decide how hot, cold, wet, or windy it might be!

Date:

Astronomy

Oct. 14, 2012 Rise Set
Actual Time 6:59 AM EDT 6:03 PM EDT
Civil Twilight 6:30 AM EDT 6:32 PM EDT
Nautical Twilight 5:57 AM EDT 7:05 PM EDT
Astronomical Twilight 5:23 AM EDT 7:38 PM EDT
Moon 5:54 AM EDT (10/14) 5:20 PM EDT (10/14)
Length of Visible Light 12h 01m
Length of Day
11h 04m
Waning Crescent, 1% of the Moon is Illuminated
Oct 14
Waning Crescent
Oct 15
New
Oct 21
First Quarter
Oct 29
Full
Nov 6
Last Quarter

Hourly Weather History & Observations

Time (EDT) Temp. Windchill Dew Point Humidity Pressure Visibility Wind Dir Wind Speed Gust Speed Precip Events Conditions
12:15 AM 44.6 °F 43.1 °F 24.8 °F 46% 30.25 in 10.0 mi SW 3.5 mph - N/A   Overcast
12:35 AM 44.6 °F 43.1 °F 26.6 °F 49% 30.25 in 10.0 mi SW 3.5 mph - N/A   Overcast
1:15 AM 44.6 °F 40.2 °F 26.6 °F 49% 30.27 in 10.0 mi SW 8.1 mph - N/A   Overcast
1:35 AM 42.8 °F 38.6 °F 30.2 °F 61% 30.25 in 10.0 mi SW 6.9 mph - N/A   Mostly Cloudy
1:55 AM 42.8 °F - 32.0 °F 66% 30.24 in 10.0 mi Calm Calm - N/A   Overcast
2:15 AM 39.2 °F - 33.8 °F 81% 30.23 in 10.0 mi Calm Calm - N/A   Overcast
2:35 AM 39.2 °F 37.0 °F 33.8 °F 81% 30.22 in 9.0 mi NNW 3.5 mph - N/A   Overcast
2:55 AM 39.2 °F - 35.6 °F 87% 30.21 in 10.0 mi Calm Calm - 0.02 in   Overcast
3:15 AM 39.2 °F - 35.6 °F 87% 30.23 in 10.0 mi Calm Calm - 0.01 in   Overcast
3:35 AM 39.2 °F 37.0 °F 35.6 °F 87% 30.20 in 7.0 mi East 3.5 mph - 0.02 in   Overcast
3:55 AM 39.2 °F - 35.6 °F 87% 30.19 in 8.0 mi Calm Calm - 0.03 in   Overcast
4:15 AM 37.4 °F - 35.6 °F 93% 30.17 in 10.0 mi Calm Calm - 0.01 in   Overcast
4:35 AM 37.4 °F - 33.8 °F 87% 30.15 in 10.0 mi Calm Calm - 0.01 in   Overcast
4:55 AM 39.2 °F 35.9 °F 35.6 °F 87% 30.15 in 9.0 mi NW 4.6 mph - 0.01 in   Overcast
5:15 AM 39.2 °F - 35.6 °F 87% 30.14 in 9.0 mi Calm Calm - 0.02 in   Overcast
5:35 AM 39.2 °F 35.0 °F 35.6 °F 87% 30.13 in 10.0 mi WSW 5.8 mph - 0.04 in   Overcast
5:55 AM 41.0 °F 39.0 °F 35.6 °F 81% 30.12 in 8.0 mi WNW 3.5 mph - 0.05 in   Overcast
6:15 AM 41.0 °F 39.0 °F 37.4 °F 87% 30.11 in 7.0 mi West 3.5 mph - N/A   Overcast
6:55 AM 42.8 °F 37.5 °F 37.4 °F 81% 30.10 in 5.0 mi WSW 9.2 mph - 0.02 in   Overcast
7:15 AM 42.8 °F 37.5 °F 37.4 °F 81% 30.10 in 10.0 mi WSW 9.2 mph - N/A   Overcast
7:35 AM 42.8 °F 38.0 °F 37.4 °F 81% 30.09 in 8.0 mi WSW 8.1 mph - N/A   Overcast
7:55 AM 42.8 °F 38.0 °F 39.2 °F 87% 30.09 in 6.0 mi WSW 8.1 mph - N/A   Overcast
8:15 AM 42.8 °F 37.5 °F 39.2 °F 87% 30.08 in 10.0 mi SW 9.2 mph - N/A   Overcast
8:35 AM 44.6 °F 39.7 °F 39.2 °F 81% 30.08 in 10.0 mi WSW 9.2 mph - N/A   Overcast
8:55 AM 44.6 °F 42.2 °F 39.2 °F 81% 30.08 in 10.0 mi West 4.6 mph - N/A   Overcast
9:15 AM 44.6 °F 41.4 °F 39.2 °F 81% 30.08 in 10.0 mi West 5.8 mph - N/A   Overcast
9:35 AM 44.6 °F 41.4 °F 39.2 °F 81% 30.07 in 10.0 mi WSW 5.8 mph - N/A   Overcast
10:15 AM 44.6 °F 41.4 °F 41.0 °F 87% 30.07 in 10.0 mi WSW 5.8 mph - N/A   Overcast
10:35 AM 44.6 °F 43.1 °F 41.0 °F 87% 30.07 in 10.0 mi WSW 3.5 mph - N/A   Overcast
10:55 AM 46.4 °F 42.9 °F 42.8 °F 87% 30.06 in 10.0 mi NW 6.9 mph - N/A   Overcast
11:15 AM 46.4 °F 45.2 °F 41.0 °F 81% 30.06 in 9.0 mi WNW 3.5 mph - N/A   Overcast
11:35 AM 46.4 °F - 42.8 °F 87% 30.06 in 10.0 mi Calm Calm - N/A   Overcast
11:55 AM 46.4 °F 45.2 °F 42.8 °F 87% 30.05 in 10.0 mi West 3.5 mph - N/A   Overcast
12:15 PM 46.4 °F 43.5 °F 42.8 °F 87% 30.06 in 10.0 mi West 5.8 mph - N/A   Overcast
12:35 PM 48.2 °F - 42.8 °F 82% 30.05 in 10.0 mi Calm Calm - N/A   Overcast
1:35 PM 48.2 °F - 44.6 °F 87% 30.03 in 10.0 mi WSW 4.6 mph - N/A   Overcast
1:55 PM 48.2 °F - 44.6 °F 87% 30.02 in 10.0 mi WSW 3.5 mph - N/A   Overcast
2:15 PM 48.2 °F - 44.6 °F 87% 30.01 in 10.0 mi Calm Calm - N/A   Overcast
2:35 PM 48.2 °F - 44.6 °F 87% 30.00 in 10.0 mi Calm Calm - N/A   Overcast
2:55 PM 48.2 °F - 44.6 °F 87% 29.98 in 10.0 mi NE 3.5 mph - N/A   Overcast
3:15 PM 48.2 °F - 44.6 °F 87% 29.99 in 10.0 mi Calm Calm - N/A   Overcast
3:35 PM 48.2 °F - 44.6 °F 87% 29.99 in 10.0 mi Calm Calm - N/A   Overcast
3:55 PM 48.2 °F - 44.6 °F 87% 29.99 in 10.0 mi North 3.5 mph - N/A   Overcast
4:15 PM 48.2 °F - 44.6 °F 87% 29.98 in 10.0 mi Calm Calm - N/A   Overcast
5:15 PM 48.2 °F - 44.6 °F 87% 29.98 in 10.0 mi Calm Calm - N/A   Overcast
5:35 PM 48.2 °F - 44.6 °F 87% 29.97 in 10.0 mi Calm Calm - N/A   Overcast
5:55 PM 48.2 °F - 44.6 °F 87% 29.97 in 10.0 mi Calm Calm - N/A   Overcast
6:15 PM 50.0 °F - 44.6 °F 82% 29.98 in 10.0 mi Calm Calm - N/A   Overcast
6:55 PM 48.2 °F - 44.6 °F 87% 29.97 in 10.0 mi Calm Calm - N/A   Overcast
7:35 PM 48.2 °F - 44.6 °F 87% 29.96 in 6.0 mi Calm Calm - N/A   Overcast
7:55 PM 48.2 °F - 44.6 °F 87% 29.96 in 9.0 mi Calm Calm - N/A   Overcast
8:15 PM 48.2 °F - 44.6 °F 87% 29.96 in 6.0 mi Calm Calm - N/A   Scattered Clouds
8:35 PM 46.4 °F - 44.6 °F 93% 29.96 in 2.5 mi Calm Calm - N/A   Mostly Cloudy
8:55 PM 46.4 °F - 42.8 °F 87% 29.95 in 1.0 mi Calm Calm - N/A   Overcast
9:15 PM 46.4 °F - 42.8 °F 87% 29.95 in 2.0 mi Calm Calm - N/A   Overcast
9:55 PM 46.4 °F - 42.8 °F 87% 29.93 in 1.0 mi Calm Calm - N/A   Overcast
10:15 PM 46.4 °F - 42.8 °F 87% 29.93 in 4.0 mi Calm Calm - N/A   Overcast
10:35 PM 46.4 °F - 42.8 °F 87% 29.92 in 5.0 mi Calm Calm - N/A   Overcast
10:55 PM 46.4 °F - 44.6 °F 93% 29.92 in 5.0 mi Calm Calm - N/A   Overcast
11:15 PM 46.4 °F - 44.6 °F 93% 29.91 in 3.0 mi Calm Calm - N/A   Overcast
11:35 PM 46.4 °F - 44.6 °F 93% 29.90 in 1.0 mi Calm Calm - N/A   Overcast